owner,sensor,date,latitude,longitude,air_temperature,qcFlag 
TABS,ioos:station:wmo:42043:1,2017-02-02T00:00:00Z,28.9818,-94.9186,18.5,11144222 
TABS,ioos:station:wmo:42043:1,2017-02-02T00:30:00Z,28.9818,-94.9186,18.2,11144222 
TABS,ioos:station:wmo:42043:1,2017-02-02T01:00:00Z,28.9818,-94.9186,17.8,11144222 
TABS,ioos:station:wmo:42043:1,2017-02-02T01:30:00Z,28.9818,-94.9186,17.6,11144222 
TABS,ioos:station:wmo:42043:1,2017-02-02T02:00:00Z,28.9818,-94.9186,17.6,11144222 
TABS,ioos:station:wmo:42043:1,2017-02-02T02:30:00Z,28.9818,-94.9186,17.4,11144222 
TABS,ioos:station:wmo:42043:1,2017-02-02T03:00:00Z,28.9818,-94.9186,17.7,11144222 
TABS,ioos:station:wmo:42043:1,2017-02-02T03:30:00Z,28.9818,-94.9186,17.6,11144222 
TABS,ioos:station:wmo:42043:1,2017-02-02T04:00:00Z,28.9818,-94.9186,17.6,11144222 
TABS,ioos:station:wmo:42043:1,2017-02-02T04:30:00Z,28.9818,-94.9186,17.7,11144222 
TABS,ioos:station:wmo:42043:1,2017-02-02T05:00:00Z,28.9818,-94.9186,17.6,11144222 
TABS,ioos:station:wmo:42043:1,2017-02-02T05:30:00Z,28.9818,-94.9186,17.7,11144222 
TABS,ioos:station:wmo:42043:1,2017-02-02T06:00:00Z,28.9818,-94.9186,17.6,11144222 
TABS,ioos:station:wmo:42043:1,2017-02-02T06:30:00Z,28.9818,-94.9186,17.7,11144222 
TABS,ioos:station:wmo:42043:1,2017-02-02T07:00:00Z,28.9818,-94.9186,17.5,11144222 
TABS,ioos:station:wmo:42043:1,2017-02-02T07:30:00Z,28.9818,-94.9186,17.4,11144222 
TABS,ioos:station:wmo:42043:1,2017-02-02T08:00:00Z,28.9818,-94.9186,17.2,11144222 
TABS,ioos:station:wmo:42043:1,2017-02-02T08:30:00Z,28.9818,-94.9186,17.3,11144222 
TABS,ioos:station:wmo:42043:1,2017-02-02T09:00:00Z,28.9818,-94.9186,17.2,11144222 
TABS,ioos:station:wmo:42043:1,2017-02-02T09:30:00Z,28.9818,-94.9186,17.3,11144222 
TABS,ioos:station:wmo:42043:1,2017-02-02T10:00:00Z,28.9818,-94.9186,17.3,11144222 
TABS,ioos:station:wmo:42043:1,2017-02-02T10:30:00Z,28.9818,-94.9186,17.3,11144222 
TABS,ioos:station:wmo:42043:1,2017-02-02T11:00:00Z,28.9818,-94.9186,17.2,11144222 
TABS,ioos:station:wmo:42043:1,2017-02-02T11:30:00Z,28.9818,-94.9186,17.3,11144222 
TABS,ioos:station:wmo:42043:1,2017-02-02T12:00:00Z,28.9818,-94.9186,17.2,11144222 
TABS,ioos:station:wmo:42043:1,2017-02-02T12:30:00Z,28.9818,-94.9186,17.2,11144222 
TABS,ioos:station:wmo:42043:1,2017-02-02T13:00:00Z,28.9818,-94.9186,17.1,11144222 
TABS,ioos:station:wmo:42043:1,2017-02-02T13:30:00Z,28.9818,-94.9186,17.3,11144222 
TABS,ioos:station:wmo:42043:1,2017-02-02T14:00:00Z,28.9818,-94.9186,17.8,11144222 
TABS,ioos:station:wmo:42043:1,2017-02-02T14:30:00Z,28.9818,-94.9186,17.6,11144222 
TABS,ioos:station:wmo:42043:1,2017-02-02T15:00:00Z,28.9818,-94.9186,18.0,11144222 
TABS,ioos:station:wmo:42043:1,2017-02-02T15:30:00Z,28.9818,-94.9186,17.9,11144222 
TABS,ioos:station:wmo:42043:1,2017-02-02T16:00:00Z,28.9818,-94.9186,18.0,11144222 
TABS,ioos:station:wmo:42043:1,2017-02-02T16:30:00Z,28.9818,-94.9186,18.5,11144222 
TABS,ioos:station:wmo:42043:1,2017-02-02T17:00:00Z,28.9818,-94.9186,18.7,11144222 
TABS,ioos:station:wmo:42043:1,2017-02-02T17:30:00Z,28.9818,-94.9186,18.8,11144222 
TABS,ioos:station:wmo:42043:1,2017-02-02T18:00:00Z,28.9818,-94.9186,18.9,11144222 
TABS,ioos:station:wmo:42043:1,2017-02-02T18:30:00Z,28.9818,-94.9186,18.9,11144222 
TABS,ioos:station:wmo:42043:1,2017-02-02T19:00:00Z,28.9818,-94.9186,19.0,11144222 
TABS,ioos:station:wmo:42043:1,2017-02-02T19:30:00Z,28.9818,-94.9186,19.1,11144222 
TABS,ioos:station:wmo:42043:1,2017-02-02T20:00:00Z,28.9818,-94.9186,19.2,11144222 
TABS,ioos:station:wmo:42043:1,2017-02-02T20:30:00Z,28.9818,-94.9186,19.5,11144222 
TABS,ioos:station:wmo:42043:1,2017-02-02T21:00:00Z,28.9818,-94.9186,19.7,11144222 
TABS,ioos:station:wmo:42043:1,2017-02-02T21:30:00Z,28.9818,-94.9186,20.0,11144222 
TABS,ioos:station:wmo:42043:1,2017-02-02T22:00:00Z,28.9818,-94.9186,20.1,11144222 
TABS,ioos:station:wmo:42043:1,2017-02-02T22:30:00Z,28.9818,-94.9186,20.1,11144222 
TABS,ioos:station:wmo:42043:1,2017-02-02T23:00:00Z,28.9818,-94.9186,20.4,11144222 
TABS,ioos:station:wmo:42043:1,2017-02-02T23:30:00Z,28.9818,-94.9186,19.2,11144222 
TABS,ioos:station:wmo:42043:1,2017-02-03T00:00:00Z,28.9818,-94.9186,18.8,11144222 
TABS,ioos:station:wmo:42043:1,2017-02-03T00:30:00Z,28.9818,-94.9186,18.6,11144222 
TABS,ioos:station:wmo:42043:1,2017-02-03T01:00:00Z,28.9818,-94.9186,18.6,11144222 
TABS,ioos:station:wmo:42043:1,2017-02-03T01:30:00Z,28.9818,-94.9186,18.7,11144222 
TABS,ioos:station:wmo:42043:1,2017-02-03T02:00:00Z,28.9818,-94.9186,18.7,11144222 
TABS,ioos:station:wmo:42043:1,2017-02-03T02:30:00Z,28.9818,-94.9186,18.4,11144222 
TABS,ioos:station:wmo:42043:1,2017-02-03T03:00:00Z,28.9818,-94.9186,17.6,11144222 
TABS,ioos:station:wmo:42043:1,2017-02-03T03:30:00Z,28.9818,-94.9186,17.2,11144222 
TABS,ioos:station:wmo:42043:1,2017-02-03T04:00:00Z,28.9818,-94.9186,17.0,11144222 
TABS,ioos:station:wmo:42043:1,2017-02-03T04:30:00Z,28.9818,-94.9186,16.8,11144222 
TABS,ioos:station:wmo:42043:1,2017-02-03T05:00:00Z,28.9818,-94.9186,16.6,11144222 
TABS,ioos:station:wmo:42043:1,2017-02-03T05:30:00Z,28.9818,-94.9186,16.3,11144222 
TABS,ioos:station:wmo:42043:1,2017-02-03T06:00:00Z,28.9818,-94.9186,16.2,11144222 
TABS,ioos:station:wmo:42043:1,2017-02-03T06:30:00Z,28.9818,-94.9186,15.7,11144222 
TABS,ioos:station:wmo:42043:1,2017-02-03T07:00:00Z,28.9818,-94.9186,15.0,11144222 
TABS,ioos:station:wmo:42043:1,2017-02-03T07:30:00Z,28.9818,-94.9186,14.6,11144222 
TABS,ioos:station:wmo:42043:1,2017-02-03T08:00:00Z,28.9818,-94.9186,14.2,11144222 
TABS,ioos:station:wmo:42043:1,2017-02-03T08:30:00Z,28.9818,-94.9186,13.9,11144222 
TABS,ioos:station:wmo:42043:1,2017-02-03T09:00:00Z,28.9818,-94.9186,13.7,11144222 
TABS,ioos:station:wmo:42043:1,2017-02-03T09:30:00Z,28.9818,-94.9186,13.6,11144222 
TABS,ioos:station:wmo:42043:1,2017-02-03T10:00:00Z,28.9818,-94.9186,13.1,11144222 
TABS,ioos:station:wmo:42043:1,2017-02-03T10:30:00Z,28.9818,-94.9186,12.7,11144222 
TABS,ioos:station:wmo:42043:1,2017-02-03T11:00:00Z,28.9818,-94.9186,12.3,11144222 
TABS,ioos:station:wmo:42043:1,2017-02-03T11:30:00Z,28.9818,-94.9186,12.0,11144222 
TABS,ioos:station:wmo:42043:1,2017-02-03T12:00:00Z,28.9818,-94.9186,12.1,11144222 
TABS,ioos:station:wmo:42043:1,2017-02-03T12:30:00Z,28.9818,-94.9186,12.3,11144222 
TABS,ioos:station:wmo:42043:1,2017-02-03T13:00:00Z,28.9818,-94.9186,12.2,11144222 
TABS,ioos:station:wmo:42043:1,2017-02-03T13:30:00Z,28.9818,-94.9186,11.9,11144222 
TABS,ioos:station:wmo:42043:1,2017-02-03T14:00:00Z,28.9818,-94.9186,11.9,11144222 
TABS,ioos:station:wmo:42043:1,2017-02-03T14:30:00Z,28.9818,-94.9186,11.8,11144222 
TABS,ioos:station:wmo:42043:1,2017-02-03T15:00:00Z,28.9818,-94.9186,11.5,11144222 
TABS,ioos:station:wmo:42043:1,2017-02-03T15:30:00Z,28.9818,-94.9186,11.7,11144222 
TABS,ioos:station:wmo:42043:1,2017-02-03T16:00:00Z,28.9818,-94.9186,11.8,11144222 
TABS,ioos:station:wmo:42043:1,2017-02-03T16:30:00Z,28.9818,-94.9186,11.8,11144222 
TABS,ioos:station:wmo:42043:1,2017-02-03T17:00:00Z,28.9818,-94.9186,12.0,11144222 
TABS,ioos:station:wmo:42043:1,2017-02-03T17:30:00Z,28.9818,-94.9186,12.2,11144222 
TABS,ioos:station:wmo:42043:1,2017-02-03T18:00:00Z,28.9818,-94.9186,12.1,11144222 
TABS,ioos:station:wmo:42043:1,2017-02-03T18:30:00Z,28.9818,-94.9186,12.2,11144222 
TABS,ioos:station:wmo:42043:1,2017-02-03T19:00:00Z,28.9818,-94.9186,12.3,11144222 
TABS,ioos:station:wmo:42043:1,2017-02-03T19:30:00Z,28.9818,-94.9186,12.6,11144222 
TABS,ioos:station:wmo:42043:1,2017-02-03T20:00:00Z,28.9818,-94.9186,13.1,11144222 
TABS,ioos:station:wmo:42043:1,2017-02-03T20:30:00Z,28.9818,-94.9186,13.4,11144222 
TABS,ioos:station:wmo:42043:1,2017-02-03T21:00:00Z,28.9818,-94.9186,13.4,11144222 
TABS,ioos:station:wmo:42043:1,2017-02-03T21:30:00Z,28.9818,-94.9186,13.5,11144222 
TABS,ioos:station:wmo:42043:1,2017-02-03T22:00:00Z,28.9818,-94.9186,13.8,11144222 
TABS,ioos:station:wmo:42043:1,2017-02-03T22:30:00Z,28.9818,-94.9186,14.1,11144222 
TABS,ioos:station:wmo:42043:1,2017-02-03T23:00:00Z,28.9818,-94.9186,14.3,11144222 
TABS,ioos:station:wmo:42043:1,2017-02-03T23:30:00Z,28.9818,-94.9186,14.5,11144222 
TABS,ioos:station:wmo:42043:1,2017-02-04T00:00:00Z,28.9818,-94.9186,14.8,11144222 
TABS,ioos:station:wmo:42043:1,2017-02-04T00:30:00Z,28.9818,-94.9186,15.1,11144222 
TABS,ioos:station:wmo:42043:1,2017-02-04T01:00:00Z,28.9818,-94.9186,15.0,11144222 
TABS,ioos:station:wmo:42043:1,2017-02-04T01:30:00Z,28.9818,-94.9186,14.9,11144222 
TABS,ioos:station:wmo:42043:1,2017-02-04T02:00:00Z,28.9818,-94.9186,14.8,11144222 
TABS,ioos:station:wmo:42043:1,2017-02-04T02:30:00Z,28.9818,-94.9186,14.8,11144222 
TABS,ioos:station:wmo:42043:1,2017-02-04T03:00:00Z,28.9818,-94.9186,14.7,11144222 
TABS,ioos:station:wmo:42043:1,2017-02-04T03:30:00Z,28.9818,-94.9186,14.6,11144222 
TABS,ioos:station:wmo:42043:1,2017-02-04T04:00:00Z,28.9818,-94.9186,13.5,11144222 
TABS,ioos:station:wmo:42043:1,2017-02-04T04:30:00Z,28.9818,-94.9186,12.9,11144222 
TABS,ioos:station:wmo:42043:1,2017-02-04T05:00:00Z,28.9818,-94.9186,13.0,11144222 
TABS,ioos:station:wmo:42043:1,2017-02-04T05:30:00Z,28.9818,-94.9186,13.0,11144222 
TABS,ioos:station:wmo:42043:1,2017-02-04T06:00:00Z,28.9818,-94.9186,13.2,11144222 
TABS,ioos:station:wmo:42043:1,2017-02-04T06:30:00Z,28.9818,-94.9186,13.1,11144222 
TABS,ioos:station:wmo:42043:1,2017-02-04T07:00:00Z,28.9818,-94.9186,13.0,11144222 
TABS,ioos:station:wmo:42043:1,2017-02-04T07:30:00Z,28.9818,-94.9186,12.9,11144222 
TABS,ioos:station:wmo:42043:1,2017-02-04T08:00:00Z,28.9818,-94.9186,12.9,11144222 
TABS,ioos:station:wmo:42043:1,2017-02-04T08:30:00Z,28.9818,-94.9186,12.8,11144222 
TABS,ioos:station:wmo:42043:1,2017-02-04T09:00:00Z,28.9818,-94.9186,12.9,11144222 
TABS,ioos:station:wmo:42043:1,2017-02-04T09:30:00Z,28.9818,-94.9186,12.8,11144222 
TABS,ioos:station:wmo:42043:1,2017-02-04T10:00:00Z,28.9818,-94.9186,12.8,11144222 
TABS,ioos:station:wmo:42043:1,2017-02-04T10:30:00Z,28.9818,-94.9186,12.6,11144222 
TABS,ioos:station:wmo:42043:1,2017-02-04T11:00:00Z,28.9818,-94.9186,12.5,11144222 
TABS,ioos:station:wmo:42043:1,2017-02-04T11:30:00Z,28.9818,-94.9186,12.7,11144222 
TABS,ioos:station:wmo:42043:1,2017-02-04T12:00:00Z,28.9818,-94.9186,12.6,11144222 
TABS,ioos:station:wmo:42043:1,2017-02-04T12:30:00Z,28.9818,-94.9186,12.5,11144222 
TABS,ioos:station:wmo:42043:1,2017-02-04T13:00:00Z,28.9818,-94.9186,12.6,11144222 
TABS,ioos:station:wmo:42043:1,2017-02-04T13:30:00Z,28.9818,-94.9186,12.6,11144222 
TABS,ioos:station:wmo:42043:1,2017-02-04T14:00:00Z,28.9818,-94.9186,12.8,11144222 
TABS,ioos:station:wmo:42043:1,2017-02-04T14:30:00Z,28.9818,-94.9186,13.2,11144222 
TABS,ioos:station:wmo:42043:1,2017-02-04T15:00:00Z,28.9818,-94.9186,13.5,11144222 
TABS,ioos:station:wmo:42043:1,2017-02-04T15:30:00Z,28.9818,-94.9186,13.7,11144222 
TABS,ioos:station:wmo:42043:1,2017-02-04T16:00:00Z,28.9818,-94.9186,13.9,11144222 
TABS,ioos:station:wmo:42043:1,2017-02-04T16:30:00Z,28.9818,-94.9186,14.2,11144222 
TABS,ioos:station:wmo:42043:1,2017-02-04T17:00:00Z,28.9818,-94.9186,14.5,11144222 
TABS,ioos:station:wmo:42043:1,2017-02-04T17:30:00Z,28.9818,-94.9186,14.7,11144222 
TABS,ioos:station:wmo:42043:1,2017-02-04T18:00:00Z,28.9818,-94.9186,14.7,11144222 
TABS,ioos:station:wmo:42043:1,2017-02-04T18:30:00Z,28.9818,-94.9186,14.6,11144222 
TABS,ioos:station:wmo:42043:1,2017-02-04T19:00:00Z,28.9818,-94.9186,14.6,11144222 
TABS,ioos:station:wmo:42043:1,2017-02-04T19:30:00Z,28.9818,-94.9186,14.7,11144222 
TABS,ioos:station:wmo:42043:1,2017-02-04T20:00:00Z,28.9818,-94.9186,14.8,11144222 
TABS,ioos:station:wmo:42043:1,2017-02-04T20:30:00Z,28.9818,-94.9186,15.0,11144222 
TABS,ioos:station:wmo:42043:1,2017-02-04T21:00:00Z,28.9818,-94.9186,15.2,11144222 
TABS,ioos:station:wmo:42043:1,2017-02-04T21:30:00Z,28.9818,-94.9186,15.4,11144222 
TABS,ioos:station:wmo:42043:1,2017-02-04T22:00:00Z,28.9818,-94.9186,15.6,11144222 
TABS,ioos:station:wmo:42043:1,2017-02-04T22:30:00Z,28.9818,-94.9186,15.8,11144222 
TABS,ioos:station:wmo:42043:1,2017-02-04T23:00:00Z,28.9818,-94.9186,16.0,11144222 
TABS,ioos:station:wmo:42043:1,2017-02-04T23:30:00Z,28.9818,-94.9186,16.1,11144222 
TABS,ioos:station:wmo:42043:1,2017-02-05T00:00:00Z,28.9818,-94.9186,16.2,11144222 
TABS,ioos:station:wmo:42043:1,2017-02-05T00:30:00Z,28.9818,-94.9186,16.6,11144222 
TABS,ioos:station:wmo:42043:1,2017-02-05T01:00:00Z,28.9818,-94.9186,16.7,11144222 
TABS,ioos:station:wmo:42043:1,2017-02-05T01:30:00Z,28.9818,-94.9186,16.8,11144222 
TABS,ioos:station:wmo:42043:1,2017-02-05T02:00:00Z,28.9818,-94.9186,16.9,11144222 
TABS,ioos:station:wmo:42043:1,2017-02-05T02:30:00Z,28.9818,-94.9186,16.9,11144222 
TABS,ioos:station:wmo:42043:1,2017-02-05T03:00:00Z,28.9818,-94.9186,16.9,11144222 
TABS,ioos:station:wmo:42043:1,2017-02-05T03:30:00Z,28.9818,-94.9186,17.2,11144222 
TABS,ioos:station:wmo:42043:1,2017-02-05T04:00:00Z,28.9818,-94.9186,17.2,11144222 
TABS,ioos:station:wmo:42043:1,2017-02-05T04:30:00Z,28.9818,-94.9186,17.3,11144222 
TABS,ioos:station:wmo:42043:1,2017-02-05T05:00:00Z,28.9818,-94.9186,17.3,11144222 
TABS,ioos:station:wmo:42043:1,2017-02-05T05:30:00Z,28.9818,-94.9186,17.5,11144222 
TABS,ioos:station:wmo:42043:1,2017-02-05T06:00:00Z,28.9818,-94.9186,17.6,11144222 
TABS,ioos:station:wmo:42043:1,2017-02-05T06:30:00Z,28.9818,-94.9186,17.5,11144222 
TABS,ioos:station:wmo:42043:1,2017-02-05T07:00:00Z,28.9818,-94.9186,17.4,11144222 
TABS,ioos:station:wmo:42043:1,2017-02-05T07:30:00Z,28.9818,-94.9186,17.3,11144222 
TABS,ioos:station:wmo:42043:1,2017-02-05T08:00:00Z,28.9818,-94.9186,17.3,11144222 
TABS,ioos:station:wmo:42043:1,2017-02-05T08:30:00Z,28.9818,-94.9186,17.4,11144222 
TABS,ioos:station:wmo:42043:1,2017-02-05T09:00:00Z,28.9818,-94.9186,17.4,11144222 
TABS,ioos:station:wmo:42043:1,2017-02-05T09:30:00Z,28.9818,-94.9186,17.3,11144222 
TABS,ioos:station:wmo:42043:1,2017-02-05T10:00:00Z,28.9818,-94.9186,17.4,11144222 
TABS,ioos:station:wmo:42043:1,2017-02-05T10:30:00Z,28.9818,-94.9186,17.5,11144222 
TABS,ioos:station:wmo:42043:1,2017-02-05T11:00:00Z,28.9818,-94.9186,17.3,11144222 
TABS,ioos:station:wmo:42043:1,2017-02-05T11:30:00Z,28.9818,-94.9186,17.1,11144222 
TABS,ioos:station:wmo:42043:1,2017-02-05T12:00:00Z,28.9818,-94.9186,17.1,11144222 
TABS,ioos:station:wmo:42043:1,2017-02-05T12:30:00Z,28.9818,-94.9186,17.1,11144222 
TABS,ioos:station:wmo:42043:1,2017-02-05T13:00:00Z,28.9818,-94.9186,17.0,11144222 
TABS,ioos:station:wmo:42043:1,2017-02-05T13:30:00Z,28.9818,-94.9186,17.0,11144222 
TABS,ioos:station:wmo:42043:1,2017-02-05T14:00:00Z,28.9818,-94.9186,17.0,11144222 
TABS,ioos:station:wmo:42043:1,2017-02-05T14:30:00Z,28.9818,-94.9186,17.0,11144222 
TABS,ioos:station:wmo:42043:1,2017-02-05T15:00:00Z,28.9818,-94.9186,17.6,11144222 
TABS,ioos:station:wmo:42043:1,2017-02-05T15:30:00Z,28.9818,-94.9186,17.4,11144222 
TABS,ioos:station:wmo:42043:1,2017-02-05T16:00:00Z,28.9818,-94.9186,17.4,11144222 
TABS,ioos:station:wmo:42043:1,2017-02-05T16:30:00Z,28.9818,-94.9186,17.4,11144222 
TABS,ioos:station:wmo:42043:1,2017-02-05T17:00:00Z,28.9818,-94.9186,17.7,11144222 
TABS,ioos:station:wmo:42043:1,2017-02-05T17:30:00Z,28.9818,-94.9186,17.8,11144222 
TABS,ioos:station:wmo:42043:1,2017-02-05T18:00:00Z,28.9818,-94.9186,17.7,11144222 
TABS,ioos:station:wmo:42043:1,2017-02-05T18:30:00Z,28.9818,-94.9186,18.2,11144222 
TABS,ioos:station:wmo:42043:1,2017-02-05T19:00:00Z,28.9818,-94.9186,18.4,11144222 
TABS,ioos:station:wmo:42043:1,2017-02-05T19:30:00Z,28.9818,-94.9186,18.4,11144222 
TABS,ioos:station:wmo:42043:1,2017-02-05T20:00:00Z,28.9818,-94.9186,18.3,11144222 
TABS,ioos:station:wmo:42043:1,2017-02-05T20:30:00Z,28.9818,-94.9186,18.3,11144222 
TABS,ioos:station:wmo:42043:1,2017-02-05T21:00:00Z,28.9818,-94.9186,18.2,11144222 
TABS,ioos:station:wmo:42043:1,2017-02-05T21:30:00Z,28.9818,-94.9186,18.3,11144222 
TABS,ioos:station:wmo:42043:1,2017-02-05T22:00:00Z,28.9818,-94.9186,18.6,11144222 
TABS,ioos:station:wmo:42043:1,2017-02-05T22:30:00Z,28.9818,-94.9186,18.9,11144222 
TABS,ioos:station:wmo:42043:1,2017-02-05T23:00:00Z,28.9818,-94.9186,18.6,11144222 
TABS,ioos:station:wmo:42043:1,2017-02-05T23:30:00Z,28.9818,-94.9186,18.5,11144222 
TABS,ioos:station:wmo:42043:1,2017-02-06T00:00:00Z,28.9818,-94.9186,18.0,11144222 
TABS,ioos:station:wmo:42043:1,2017-02-06T00:30:00Z,28.9818,-94.9186,17.7,11144222 
TABS,ioos:station:wmo:42043:1,2017-02-06T01:00:00Z,28.9818,-94.9186,17.6,11144222 
TABS,ioos:station:wmo:42043:1,2017-02-06T01:30:00Z,28.9818,-94.9186,17.4,11144222 
TABS,ioos:station:wmo:42043:1,2017-02-06T02:00:00Z,28.9818,-94.9186,17.4,11144222 
TABS,ioos:station:wmo:42043:1,2017-02-06T02:30:00Z,28.9818,-94.9186,17.4,11144222 
TABS,ioos:station:wmo:42043:1,2017-02-06T03:00:00Z,28.9818,-94.9186,17.6,11144222 
TABS,ioos:station:wmo:42043:1,2017-02-06T03:30:00Z,28.9818,-94.9186,17.7,11144222 
TABS,ioos:station:wmo:42043:1,2017-02-06T04:00:00Z,28.9818,-94.9186,17.9,11144222 
TABS,ioos:station:wmo:42043:1,2017-02-06T04:30:00Z,28.9818,-94.9186,17.8,11144222 
TABS,ioos:station:wmo:42043:1,2017-02-06T05:00:00Z,28.9818,-94.9186,17.8,11144222 
TABS,ioos:station:wmo:42043:1,2017-02-06T05:30:00Z,28.9818,-94.9186,17.7,11144222 
TABS,ioos:station:wmo:42043:1,2017-02-06T06:00:00Z,28.9818,-94.9186,17.8,11144222 
TABS,ioos:station:wmo:42043:1,2017-02-06T06:30:00Z,28.9818,-94.9186,17.8,11144222 
TABS,ioos:station:wmo:42043:1,2017-02-06T07:00:00Z,28.9818,-94.9186,17.7,11144222 
TABS,ioos:station:wmo:42043:1,2017-02-06T07:30:00Z,28.9818,-94.9186,17.6,11144222 
TABS,ioos:station:wmo:42043:1,2017-02-06T08:00:00Z,28.9818,-94.9186,17.7,11144222 
TABS,ioos:station:wmo:42043:1,2017-02-06T08:30:00Z,28.9818,-94.9186,17.6,11144222 
TABS,ioos:station:wmo:42043:1,2017-02-06T09:00:00Z,28.9818,-94.9186,17.5,11144222 
TABS,ioos:station:wmo:42043:1,2017-02-06T09:30:00Z,28.9818,-94.9186,17.6,11144222 
TABS,ioos:station:wmo:42043:1,2017-02-06T10:00:00Z,28.9818,-94.9186,17.5,11144222 
TABS,ioos:station:wmo:42043:1,2017-02-06T10:30:00Z,28.9818,-94.9186,17.6,11144222 
TABS,ioos:station:wmo:42043:1,2017-02-06T11:00:00Z,28.9818,-94.9186,17.6,11144222 
TABS,ioos:station:wmo:42043:1,2017-02-06T11:30:00Z,28.9818,-94.9186,17.6,11144222 
TABS,ioos:station:wmo:42043:1,2017-02-06T12:00:00Z,28.9818,-94.9186,17.4,11144222 
TABS,ioos:station:wmo:42043:1,2017-02-06T12:30:00Z,28.9818,-94.9186,17.5,11144222 
TABS,ioos:station:wmo:42043:1,2017-02-06T13:00:00Z,28.9818,-94.9186,17.3,11144222 
TABS,ioos:station:wmo:42043:1,2017-02-06T13:30:00Z,28.9818,-94.9186,17.3,11144222 
TABS,ioos:station:wmo:42043:1,2017-02-06T14:00:00Z,28.9818,-94.9186,17.4,11144222 
TABS,ioos:station:wmo:42043:1,2017-02-06T14:30:00Z,28.9818,-94.9186,17.8,11144222 
TABS,ioos:station:wmo:42043:1,2017-02-06T15:00:00Z,28.9818,-94.9186,17.5,11144222 
TABS,ioos:station:wmo:42043:1,2017-02-06T15:30:00Z,28.9818,-94.9186,17.7,11144222 
TABS,ioos:station:wmo:42043:1,2017-02-06T16:00:00Z,28.9818,-94.9186,17.9,11144222 
TABS,ioos:station:wmo:42043:1,2017-02-06T16:30:00Z,28.9818,-94.9186,18.3,11144222 
TABS,ioos:station:wmo:42043:1,2017-02-06T17:00:00Z,28.9818,-94.9186,18.4,11144222 
TABS,ioos:station:wmo:42043:1,2017-02-06T17:30:00Z,28.9818,-94.9186,18.4,11144222 
TABS,ioos:station:wmo:42043:1,2017-02-06T18:00:00Z,28.9818,-94.9186,18.5,11144222 
TABS,ioos:station:wmo:42043:1,2017-02-06T18:30:00Z,28.9818,-94.9186,18.6,11144222 
TABS,ioos:station:wmo:42043:1,2017-02-06T19:00:00Z,28.9818,-94.9186,18.6,11144222 
TABS,ioos:station:wmo:42043:1,2017-02-06T19:30:00Z,28.9818,-94.9186,18.7,11144222 
TABS,ioos:station:wmo:42043:1,2017-02-06T20:00:00Z,28.9818,-94.9186,18.8,11144222 
TABS,ioos:station:wmo:42043:1,2017-02-06T20:30:00Z,28.9818,-94.9186,18.9,11144222 
TABS,ioos:station:wmo:42043:1,2017-02-06T21:00:00Z,28.9818,-94.9186,19.0,11144222 
TABS,ioos:station:wmo:42043:1,2017-02-06T21:30:00Z,28.9818,-94.9186,18.9,11144222 
TABS,ioos:station:wmo:42043:1,2017-02-06T22:00:00Z,28.9818,-94.9186,18.8,11144222 
TABS,ioos:station:wmo:42043:1,2017-02-06T22:30:00Z,28.9818,-94.9186,18.5,11144222 
TABS,ioos:station:wmo:42043:1,2017-02-06T23:00:00Z,28.9818,-94.9186,18.5,11144222 
TABS,ioos:station:wmo:42043:1,2017-02-06T23:30:00Z,28.9818,-94.9186,18.3,11144222 
TABS,ioos:station:wmo:42043:1,2017-02-07T00:00:00Z,28.9818,-94.9186,18.2,11144222 
TABS,ioos:station:wmo:42043:1,2017-02-07T00:30:00Z,28.9818,-94.9186,18.2,11144222 
TABS,ioos:station:wmo:42043:1,2017-02-07T01:00:00Z,28.9818,-94.9186,18.2,11144222 
TABS,ioos:station:wmo:42043:1,2017-02-07T01:30:00Z,28.9818,-94.9186,17.9,11144222 
TABS,ioos:station:wmo:42043:1,2017-02-07T02:00:00Z,28.9818,-94.9186,18.0,11144222 
TABS,ioos:station:wmo:42043:1,2017-02-07T02:30:00Z,28.9818,-94.9186,18.1,11144222 
TABS,ioos:station:wmo:42043:1,2017-02-07T03:00:00Z,28.9818,-94.9186,18.0,11144222 
TABS,ioos:station:wmo:42043:1,2017-02-07T03:30:00Z,28.9818,-94.9186,18.0,11144222 
TABS,ioos:station:wmo:42043:1,2017-02-07T04:00:00Z,28.9818,-94.9186,18.1,11144222 
TABS,ioos:station:wmo:42043:1,2017-02-07T04:30:00Z,28.9818,-94.9186,18.1,11144222 
TABS,ioos:station:wmo:42043:1,2017-02-07T05:00:00Z,28.9818,-94.9186,18.1,11144222 
TABS,ioos:station:wmo:42043:1,2017-02-07T05:30:00Z,28.9818,-94.9186,18.0,11144222 
TABS,ioos:station:wmo:42043:1,2017-02-07T06:00:00Z,28.9818,-94.9186,17.9,11144222 
TABS,ioos:station:wmo:42043:1,2017-02-07T06:30:00Z,28.9818,-94.9186,17.8,11144222 
TABS,ioos:station:wmo:42043:1,2017-02-07T07:00:00Z,28.9818,-94.9186,18.0,11144222 
TABS,ioos:station:wmo:42043:1,2017-02-07T07:30:00Z,28.9818,-94.9186,18.1,11144222 
TABS,ioos:station:wmo:42043:1,2017-02-07T08:00:00Z,28.9818,-94.9186,17.9,11144222 
TABS,ioos:station:wmo:42043:1,2017-02-07T08:30:00Z,28.9818,-94.9186,18.1,11144222 
TABS,ioos:station:wmo:42043:1,2017-02-07T09:00:00Z,28.9818,-94.9186,18.2,11144222 
TABS,ioos:station:wmo:42043:1,2017-02-07T09:30:00Z,28.9818,-94.9186,18.2,11144222 
TABS,ioos:station:wmo:42043:1,2017-02-07T10:00:00Z,28.9818,-94.9186,18.2,11144222 
TABS,ioos:station:wmo:42043:1,2017-02-07T10:30:00Z,28.9818,-94.9186,17.9,11144222 
TABS,ioos:station:wmo:42043:1,2017-02-07T11:00:00Z,28.9818,-94.9186,18.0,11144222 
TABS,ioos:station:wmo:42043:1,2017-02-07T11:30:00Z,28.9818,-94.9186,18.1,11144222 
TABS,ioos:station:wmo:42043:1,2017-02-07T12:00:00Z,28.9818,-94.9186,17.7,11144222 
TABS,ioos:station:wmo:42043:1,2017-02-07T12:30:00Z,28.9818,-94.9186,17.8,11144222 
TABS,ioos:station:wmo:42043:1,2017-02-07T13:00:00Z,28.9818,-94.9186,17.9,11144222 
TABS,ioos:station:wmo:42043:1,2017-02-07T13:30:00Z,28.9818,-94.9186,18.1,11144222 
TABS,ioos:station:wmo:42043:1,2017-02-07T14:00:00Z,28.9818,-94.9186,17.9,11144222 
TABS,ioos:station:wmo:42043:1,2017-02-07T14:30:00Z,28.9818,-94.9186,17.9,11144222 
TABS,ioos:station:wmo:42043:1,2017-02-07T15:00:00Z,28.9818,-94.9186,18.0,11144222 
TABS,ioos:station:wmo:42043:1,2017-02-07T15:30:00Z,28.9818,-94.9186,17.8,11144222 
TABS,ioos:station:wmo:42043:1,2017-02-07T16:00:00Z,28.9818,-94.9186,18.1,11144222 
TABS,ioos:station:wmo:42043:1,2017-02-07T16:30:00Z,28.9818,-94.9186,18.1,11144222 
TABS,ioos:station:wmo:42043:1,2017-02-07T17:00:00Z,28.9818,-94.9186,18.2,11144222 
TABS,ioos:station:wmo:42043:1,2017-02-07T17:30:00Z,28.9818,-94.9186,18.5,11144222 
TABS,ioos:station:wmo:42043:1,2017-02-07T18:00:00Z,28.9818,-94.9186,18.6,11144222 
TABS,ioos:station:wmo:42043:1,2017-02-07T18:30:00Z,28.9818,-94.9186,18.7,11144222 
TABS,ioos:station:wmo:42043:1,2017-02-07T19:00:00Z,28.9818,-94.9186,18.5,11144222 
TABS,ioos:station:wmo:42043:1,2017-02-07T19:30:00Z,28.9818,-94.9186,18.5,11144222 
TABS,ioos:station:wmo:42043:1,2017-02-07T20:00:00Z,28.9818,-94.9186,18.4,11144222 
TABS,ioos:station:wmo:42043:1,2017-02-07T20:30:00Z,28.9818,-94.9186,18.4,11144222 
TABS,ioos:station:wmo:42043:1,2017-02-07T21:00:00Z,28.9818,-94.9186,18.2,11144222 
TABS,ioos:station:wmo:42043:1,2017-02-07T21:30:00Z,28.9818,-94.9186,18.0,11144222 
TABS,ioos:station:wmo:42043:1,2017-02-07T22:00:00Z,28.9818,-94.9186,18.0,11144222 
TABS,ioos:station:wmo:42043:1,2017-02-07T22:30:00Z,28.9818,-94.9186,18.3,11144222 
TABS,ioos:station:wmo:42043:1,2017-02-07T23:00:00Z,28.9818,-94.9186,18.4,11144222 
TABS,ioos:station:wmo:42043:1,2017-02-07T23:30:00Z,28.9818,-94.9186,18.6,11144222 